Location: Grange Rosano
(44.4500°N, 6.9667°E)
Time: 21:22:45
(UTC+00:00)

Cosmos 1603 - Pass Details

Date: 26 May 2022
Orbit: 829 x 861 km, 71.0° (Epoch: 01 July)

Event Time Altitude Azimuth Distance (km) Brightness Sun altitude
Exits shadow 02:19:27 12° 183° (S) 2,289 5.5 -13.8°
Maximum altitude 02:24:27 53° 109° (ESE) 1,030 4.3 -13.2°
Drops below altitude 10° 02:29:56 10° 34° (NE) 2,473 7.6 -12.5°
Sets 02:32:27 0° 30° (NNE) 3,417 8.6 -12.2°
